#timestamp,LO_Frequency,Hit,StdDev 
1632319215.2,286047002.2,N
1632319235.0,286047001.8,N
1632319235.9,286047001.8,N
1632319255.8,286047002.2,N
1632319275.6,286046999.8,N
1632319295.4,286047001.1,N
1632319315.3,286046998.9,N
1632319335.1,286046996.5,N
1632319355.9,286046997.3,N
1632319375.7,286046998.9,N
1632319395.5,286047000.8,N
1632319415.4,286047002.2,N
1632319435.2,286047002.6,N
1632319455.0,286047001.9,N
1632319455.9,286047001.9,N
1632319475.8,286047000.6,N
1632319495.6,286047000.9,N
1632319515.5,286046998.1,N
1632319535.3,286046998.8,N
1632319555.1,286046997.6,N
1632319575.9,286046997.4,N
1632319595.7,286046997.7,N
1632319615.5,286046999.6,N
1632319635.4,286046999.5,N
1632319655.2,286046998.8,N
1632319675.1,286046996.7,N
1632319676.0,286046996.7,N
1632319695.8,286046999.4,N
1632319715.6,286046999.4,N
1632319735.5,286046998.4,N
1632319755.3,286046998.7,N
1632319775.2,286046999.1,N
1632319795.9,286046996.8,N
1632319815.7,286046998.3,N
1632319835.6,286046999.1,N
1632319855.4,286046998.5,N
1632319875.2,286046998.8,N
1632319895.1,286047001.1,N
1632319896.0,286047001.1,N
1632319915.8,286047001.2,N
1632319935.7,286046999.1,N
1632319955.5,286046998.1,N
1632319975.3,286046999.7,N
1632319995.2,286047001.8,N
1632320015.0,286047002.1,N
1632320015.9,286047002.1,N
1632320035.8,286047000.0,N
1632320055.6,286047000.8,N
1632320075.4,286046998.9,N
1632320095.3,286046999.5,N
1632320115.1,286046999.4,N
1632320135.9,286046999.5,N
1632320155.7,286046996.7,N
1632320175.5,286046997.4,N
1632320195.4,286046997.0,N
1632320215.2,286046997.5,N
1632320235.0,286046999.6,N
1632320235.9,286046999.6,N
1632320255.8,286046996.9,N
1632320275.6,286046998.0,N
1632320295.5,286046994.9,Y
1632320315.3,286046997.9,P
1632320335.1,286046997.9,P
1632320355.9,286046999.6,N
1632320375.7,286046999.3,N
1632320395.5,286046999.1,N
1632320415.4,286046996.7,Y
1632320435.2,286046999.3,P
1632320455.1,286046996.7,P
1632320456.0,286046996.7,N
1632320475.8,286046997.1,N
1632320495.6,286046997.6,N
1632320515.5,286046998.6,N
1632320535.3,286046998.6,N
1632320555.2,286046999.5,N
1632320575.9,286046997.0,N
1632320595.7,286046999.5,N
1632320615.6,286046999.3,N
1632320635.4,286046996.5,Y
1632320655.3,286046999.8,P
1632320675.1,286047000.6,N
1632320676.0,286047000.6,N
1632320695.8,286047001.0,N
1632320715.7,286046998.1,N
1632320735.5,286047000.8,N
1632320755.3,286046998.3,N
1632320775.2,286047000.7,N
1632320795.0,286046998.9,N
1632320795.9,286046998.9,N
1632320815.8,286046998.7,N
1632320835.6,286046999.6,N
1632320855.4,286046999.6,N
1632320875.3,286046998.9,N
1632320895.1,286046998.2,N
1632320915.8,286046998.1,N
1632320935.7,286046998.5,N
1632320955.5,286046998.8,N
1632320975.4,286046999.5,N
1632320995.2,286046999.4,N
1632321015.0,286046999.2,N
1632321015.9,286046999.2,N
1632321035.8,286046999.2,N
1632321055.6,286046999.1,N
1632321075.5,286046999.2,N
1632321095.3,286046998.5,N
1632321115.1,286046999.7,N
1632321135.9,286047001.5,N
1632321155.7,286047003.5,Y
1632321175.5,286047005.9,P
1632321195.4,286047002.9,N
1632321215.2,286047003.9,N
1632321235.1,286047001.9,N
1632321236.0,286047001.9,N
1632321255.8,286047002.8,N
1632321275.6,286047002.5,N
1632321295.5,286047000.1,N
1632321315.3,286047000.9,N
1632321335.1,286046999.9,N
1632321355.9,286047002.6,N
1632321375.7,286047001.9,N
1632321395.6,286047001.7,N
1632321415.4,286047001.9,N
1632321435.2,286047004.1,N
1632321455.1,286047004.0,N
1632321456.0,286047004.0,N
1632321475.8,286047002.1,N
1632321495.7,286047002.4,N
1632321515.5,286047002.5,N
1632321535.3,286047000.0,N
1632321555.2,286047002.4,N
1632321575.9,286047000.4,N
1632321595.7,286046999.8,N
1632321615.6,286047002.1,N
1632321635.4,286047001.5,N
1632321655.3,286047003.7,N
1632321675.1,286047003.8,N
1632321676.0,286047003.8,N
1632321695.8,286047005.6,Y
1632321715.7,286047001.9,P
1632321735.5,286047001.9,P
1632321755.3,286047002.5,P
1632321775.2,286047011.9,Y
1632321795.0,286046996.8,P
1632321795.9,286046996.8,N
1632321815.8,286046997.6,N
1632321835.6,286046998.8,N
1632321855.4,286046997.0,N
1632321875.3,286046997.1,N
1632321895.1,286046997.8,N
1632321915.9,286046997.5,N
1632321935.7,286046995.4,N
1632321955.5,286046996.1,N
1632321975.4,286046995.1,N
1632321995.2,286046995.1,N
1632322015.0,286046996.3,N
1632322015.9,286046996.3,N
1632322035.8,286046993.7,Y
1632322055.6,286046997.9,P
1632322075.5,286046997.7,P
1632322095.3,286046997.7,P
1632322115.1,286046999.3,N
1632322135.9,286046998.2,N
1632322155.7,286047000.2,N
1632322175.6,286047000.4,N
1632322195.4,286046998.7,N
1632322215.2,286046999.3,N
1632322235.1,286046999.6,N
1632322236.0,286046999.6,N
1632322255.8,286047000.7,N
1632322275.6,286047000.5,N
1632322295.5,286047000.0,N
1632322315.3,286047000.2,N
1632322335.2,286047002.8,N
1632322355.9,286047001.6,N
1632322375.7,286047001.6,N
1632322395.6,286047004.3,N
1632322415.4,286047001.4,N
1632322435.2,286047001.7,N
1632322455.1,286047003.9,N
1632322456.0,286047003.9,N
1632322475.8,286047002.5,N
1632322495.7,286046999.9,N
1632322515.5,286046999.7,N
1632322535.3,286047000.1,N
1632322555.2,286047000.7,N
1632322575.0,286047000.0,N
1632322575.9,286047000.0,N
1632322595.7,286047004.4,N
1632322615.6,286047002.6,N
1632322635.4,286046999.8,N
1632322655.3,286046999.9,N
1632322675.1,286047002.5,N
1632322676.0,286047002.5,N
1632322695.8,286047000.3,N
1632322715.7,286046999.7,N
1632322735.5,286047002.3,N
1632322755.4,286047000.1,N
1632322775.2,286047000.1,N
1632322795.0,286047000.4,N
1632322795.9,286047000.4,N
